User: anonymous   Login
Location: Unspecified
(0.0000°N, 0.0000°E)
Time: 05:13:14
(UTC+00:00)
Language:

IGS 8A - Orbit

View from above orbital plane
View from above orbital plane
View from above satellite
View from above satellite

Ground track
Ground track

The orbit data is extracted from the following two-line orbital elements,

1 39061U 13002A   17118.97724743 0.00000000  00000-0  00000-0 0    09
2 39061  97.4769 239.7065 0003000 240.6631 119.3367 15.17620770    06
Epoch (UTC): 28 April 2017 23:27:14
Eccentricity: 0.0003000
inclination: 97.4769°
perigee height: 511 km
apogee height: 515 km
right ascension of ascending node: 239.7065°
argument of perigee: 240.6631°
revolutions per day: 15.17620770
mean anomaly at epoch: 119.3367°
orbit number at epoch: 0

The dashed part of the orbit path shows where the satellite is in the earth's shadow,  

DLR